Location: Newark
(31.5350°N, 35.0986°E)
Time: 18:03:58
(UTC+00:00)

Explorer 7 - Pass Details

Date: 20 October 2019
Orbit: 485 x 680 km, 50.3° (Epoch: 17 November)

Event Time Altitude Azimuth Distance (km) Brightness Sun altitude
Rises 16:48:27 0° 297° (WNW) 2,692 11.4 -23.3°
Reaches altitude 10° 16:51:01 10° 281° (W) 1,834 10.5 -23.8°
Maximum altitude 16:54:13 21° 231° (SW) 1,296 9.2 -24.5°
Enters shadow 16:57:08 12° 185° (S) 1,796 9.4 -25.1°
Drops below altitude 10° 16:57:33 10° 181° (S) 1,922 - -25.2°
Sets 17:00:19 0° 166° (SSE) 2,862 - -25.8°
